sat.trackr.live / text

‹ back to catalog

STARLINK-4634

NORAD 53967 · 2022-125D

PAYLOAD ACTIVE UNKNOWN

§ Identity

Operator
Country
US
Launch date
2022-10-05
Launch site
AFWTR
Launch vehicle
Mass (kg)
RCS (m²)

Purposes: comms

External: N2YO · Heavens-Above · Gunter

§ Orbital elements

Epoch: 2026-09-20T17:44:35.240928Z

Period
93.85 min
Inclination
53.1614°
Eccentricity
0.0001349
Mean motion
15.34392020 rev/d
Perigee alt
461.8 km
Apogee alt
463.6 km
Semi-major
6,840.9 km
B*
1.6605e-5
RAAN
60.4399°
Arg perigee
79.3411°
Mean anomaly
280.7744°
Rev number
21,887

§ Raw data

STARLINK-46341 53967U 22125D   26263.73929677  .00000185  00000+0  16605-4 0  99962 53967  53.1614  60.4399 0001349  79.3411 280.7744 15.34392020218872

JSON: /api/v1/satellites/53967 · /tle

For live sub-satellite position, see the globe view (requires WebGL).

§ Visibility from observer

Set your observer location to see the next 7 days of passes ≥ 10°. The values pass through the URL so the page stays shareable.

No JS? Fill the form by hand. The geolocation button needs JavaScript.